Time,TemperatureF,DewpointF,PressureIn,WindDirection,WindDirectionDegrees,WindSpeedMPH,WindSpeedGustMPH,Humidity,HourlyPrecipIn,Conditions,Clouds,dailyrainin,SolarRadiationWatts/m^2,SoftwareType,DateUTC
2015-07-27 00:03:00,64.0,35.0,30.05,WNW,285,8.0,15.0,33,-99.99,,,-99.99,0.000000,,2015-07-27 07:03:00,
2015-07-27 00:12:00,64.0,35.0,30.05,West,273,7.0,13.0,33,-99.99,,,-99.99,0.000000,,2015-07-27 07:12:00,
2015-07-27 00:23:00,65.0,34.0,30.05,West,260,7.0,17.0,32,-99.99,,,-99.99,0.000000,,2015-07-27 07:23:00,
2015-07-27 00:33:00,64.0,34.0,30.04,WSW,247,9.0,20.0,32,-99.99,,,-99.99,0.000000,,2015-07-27 07:33:00,
2015-07-27 00:43:00,64.0,34.0,30.04,WSW,254,8.0,14.0,32,-99.99,,,-99.99,0.000000,,2015-07-27 07:43:00,
2015-07-27 00:53:00,64.0,34.0,30.05,WNW,293,6.0,12.0,32,-99.99,,,-99.99,0.000000,,2015-07-27 07:53:00,
2015-07-27 01:03:00,63.0,34.0,30.07,North,5,8.0,15.0,34,-99.99,,,-99.99,0.000000,,2015-07-27 08:03:00,
2015-07-27 01:12:00,62.0,36.0,30.07,North,355,13.0,22.0,38,-99.99,,,-99.99,0.000000,,2015-07-27 08:12:00,
2015-07-27 01:23:00,61.0,36.0,30.07,North,351,10.0,15.0,39,-99.99,,,-99.99,0.000000,,2015-07-27 08:23:00,
2015-07-27 01:33:00,61.0,37.0,30.07,NNW,341,10.0,16.0,41,-99.99,,,-99.99,0.000000,,2015-07-27 08:33:00,
2015-07-27 01:43:00,60.0,37.0,30.08,NNW,340,10.0,17.0,42,-99.99,,,-99.99,0.000000,,2015-07-27 08:43:00,
2015-07-27 01:53:00,59.0,37.0,30.07,NNW,346,11.0,20.0,43,-99.99,,,-99.99,0.000000,,2015-07-27 08:53:00,
2015-07-27 02:03:00,59.0,37.0,30.08,NNW,340,12.0,21.0,44,-99.99,,,-99.99,0.000000,,2015-07-27 09:03:00,
2015-07-27 02:12:00,59.0,38.0,30.08,NNW,338,12.0,20.0,45,-99.99,,,-99.99,0.000000,,2015-07-27 09:12:00,
2015-07-27 02:23:00,59.0,37.0,30.08,NNW,332,10.0,18.0,45,-99.99,,,-99.99,0.000000,,2015-07-27 09:23:00,
2015-07-27 02:33:00,58.0,37.0,-100.00,NNW,334,9.0,16.0,45,-99.99,,,-99.99,0.000000,,2015-07-27 09:33:00,
2015-07-27 02:43:00,58.0,37.0,30.09,NNW,341,10.0,18.0,45,-99.99,,,-99.99,0.000000,,2015-07-27 09:43:00,
2015-07-27 02:53:00,58.0,37.0,30.09,NNW,339,12.0,18.0,46,-99.99,,,-99.99,0.000000,,2015-07-27 09:53:00,
2015-07-27 03:03:00,58.0,37.0,30.09,NNW,344,13.0,23.0,46,-99.99,,,-99.99,0.000000,,2015-07-27 10:03:00,
2015-07-27 03:12:00,58.0,37.0,30.10,NNW,343,13.0,20.0,46,-99.99,,,-99.99,0.000000,,2015-07-27 10:12:00,
2015-07-27 03:23:00,58.0,37.0,30.10,NNW,345,11.0,16.0,46,-99.99,,,-99.99,0.000000,,2015-07-27 10:23:00,
2015-07-27 03:33:00,57.0,37.0,30.10,NNW,340,10.0,15.0,47,-99.99,,,-99.99,0.000000,,2015-07-27 10:33:00,
2015-07-27 03:43:00,57.0,37.0,30.09,NNW,340,9.0,14.0,46,-99.99,,,-99.99,0.000000,,2015-07-27 10:43:00,
2015-07-27 03:53:00,57.0,37.0,30.09,NNW,340,8.0,12.0,47,-99.99,,,-99.99,0.000000,,2015-07-27 10:53:00,
2015-07-27 04:03:00,57.0,37.0,30.09,NNW,343,9.0,16.0,47,-99.99,,,-99.99,0.000000,,2015-07-27 11:03:00,
2015-07-27 04:12:00,57.0,37.0,30.09,NNW,338,8.0,14.0,47,-99.99,,,-99.99,0.000000,,2015-07-27 11:12:00,
2015-07-27 04:23:00,56.0,37.0,30.09,NNW,333,6.0,12.0,48,-99.99,,,-99.99,0.000000,,2015-07-27 11:23:00,
2015-07-27 04:33:00,56.0,37.0,30.09,NNW,334,5.0,10.0,47,-99.99,,,-99.99,0.000000,,2015-07-27 11:33:00,
2015-07-27 04:43:00,56.0,37.0,30.09,NW,319,3.0,9.0,48,-99.99,,,-99.99,0.000000,,2015-07-27 11:43:00,
2015-07-27 04:53:00,56.0,37.0,30.10,West,280,4.0,8.0,49,-99.99,,,-99.99,0.000000,,2015-07-27 11:53:00,
2015-07-27 05:03:00,56.0,37.0,30.10,NW,325,6.0,9.0,49,-99.99,,,-99.99,0.000000,,2015-07-27 12:03:00,
2015-07-27 05:13:00,56.0,37.0,30.09,North,350,8.0,10.0,49,-99.99,,,-99.99,0.000000,,2015-07-27 12:13:00,
2015-07-27 05:23:00,56.0,37.0,30.09,NNW,341,8.0,11.0,49,-99.99,,,-99.99,0.000000,,2015-07-27 12:23:00,
2015-07-27 05:33:00,55.0,37.0,30.09,NNW,333,6.0,10.0,50,-99.99,,,-99.99,0.000000,,2015-07-27 12:33:00,
2015-07-27 05:44:00,54.0,37.0,30.10,NNW,327,6.0,10.0,52,-99.99,,,-99.99,0.000000,,2015-07-27 12:44:00,
2015-07-27 05:53:00,53.0,37.0,30.10,NW,326,5.0,8.0,53,-99.99,,,-99.99,0.000000,,2015-07-27 12:53:00,
2015-07-27 06:03:00,54.0,37.0,30.10,NNW,328,5.0,10.0,53,-99.99,,,-99.99,0.000000,,2015-07-27 13:03:00,
2015-07-27 06:13:00,54.0,37.0,30.10,NNW,330,6.0,12.0,52,-99.99,,,-99.99,0.000000,,2015-07-27 13:13:00,
2015-07-27 06:23:00,54.0,37.0,30.10,NNW,327,6.0,11.0,53,-99.99,,,-99.99,0.000000,,2015-07-27 13:23:00,
2015-07-27 06:33:00,54.0,37.0,30.10,NW,320,5.0,9.0,53,-99.99,,,-99.99,0.000000,,2015-07-27 13:33:00,
2015-07-27 06:43:00,54.0,37.0,30.11,NW,315,5.0,7.0,52,-99.99,,,-99.99,0.000000,,2015-07-27 13:43:00,
2015-07-27 06:53:00,54.0,37.0,30.11,NNW,332,4.0,6.0,53,-99.99,,,-99.99,10.000000,,2015-07-27 13:53:00,
2015-07-27 07:03:00,54.0,37.0,30.11,NNW,328,3.0,5.0,52,-99.99,,,-99.99,10.000000,,2015-07-27 14:03:00,
2015-07-27 07:13:00,54.0,37.0,30.11,NW,321,4.0,5.0,52,-99.99,,,-99.99,10.000000,,2015-07-27 14:13:00,
2015-07-27 07:23:00,54.0,37.0,30.11,NNW,329,3.0,5.0,52,-99.99,,,-99.99,60.000000,,2015-07-27 14:23:00,
2015-07-27 07:33:00,55.0,37.0,30.11,NW,326,4.0,7.0,51,-99.99,,,-99.99,100.000000,,2015-07-27 14:33:00,
2015-07-27 07:40:00,58.0,38.0,30.13,NNW,340,5.0,8.0,48,-99.99,,,-99.99,240.000000,,2015-07-27 14:40:00,
2015-07-27 07:43:00,55.0,37.0,30.11,NNW,330,4.0,7.0,51,-99.99,,,-99.99,120.000000,,2015-07-27 14:43:00,
2015-07-27 07:53:00,56.0,37.0,30.11,NNW,334,5.0,8.0,50,-99.99,,,-99.99,150.000000,,2015-07-27 14:53:00,
2015-07-27 08:03:00,56.0,38.0,30.12,NNW,336,5.0,9.0,50,-99.99,,,-99.99,180.000000,,2015-07-27 15:03:00,
2015-07-27 08:33:00,58.0,38.0,30.13,NNW,340,5.0,8.0,48,-99.99,,,-99.99,240.000000,,2015-07-27 15:33:00,
2015-07-27 09:12:00,60.0,38.0,30.14,NNW,340,4.0,8.0,43,-99.99,,,-99.99,400.000000,,2015-07-27 16:12:00,
2015-07-27 09:33:00,62.0,38.0,-100.00,NW,325,3.0,6.0,41,-99.99,,,-99.99,460.000000,,2015-07-27 16:33:00,
2015-07-27 09:43:00,62.0,38.0,30.14,NNW,338,3.0,7.0,41,-99.99,,,-99.99,490.000000,,2015-07-27 16:43:00,
2015-07-27 09:53:00,63.0,37.0,30.14,NNW,329,3.0,7.0,39,-99.99,,,-99.99,530.000000,,2015-07-27 16:53:00,
2015-07-27 10:04:00,63.0,38.0,30.14,NW,325,3.0,6.0,39,-99.99,,,-99.99,560.000000,,2015-07-27 17:04:00,
2015-07-27 10:13:00,63.0,38.0,30.14,NW,305,4.0,6.0,39,-99.99,,,-99.99,590.000000,,2015-07-27 17:13:00,
2015-07-27 10:33:00,65.0,38.0,30.14,NNE,22,2.0,6.0,37,-99.99,,,-99.99,650.000000,,2015-07-27 17:33:00,
2015-07-27 10:44:00,66.0,38.0,30.14,ENE,76,3.0,10.0,36,-99.99,,,-99.99,670.000000,,2015-07-27 17:44:00,
2015-07-27 10:54:00,66.0,38.0,30.14,ENE,76,3.0,10.0,36,-99.99,,,-99.99,670.000000,,2015-07-27 17:54:00,
2015-07-27 11:03:00,66.0,38.0,30.13,NE,34,3.0,7.0,35,-99.99,,,-99.99,720.000000,,2015-07-27 18:03:00,
2015-07-27 11:13:00,67.0,37.0,30.13,East,95,5.0,11.0,34,-99.99,,,-99.99,750.000000,,2015-07-27 18:13:00,
2015-07-27 11:23:00,68.0,37.0,30.13,ESE,116,4.0,8.0,33,-99.99,,,-99.99,770.000000,,2015-07-27 18:23:00,
2015-07-27 11:34:00,68.0,37.0,30.14,ENE,60,2.0,9.0,32,-99.99,,,-99.99,790.000000,,2015-07-27 18:34:00,
2015-07-27 11:44:00,70.0,38.0,30.14,NW,320,2.0,7.0,31,-99.99,,,-99.99,810.000000,,2015-07-27 18:44:00,
2015-07-27 11:54:00,69.0,37.0,30.14,NNW,346,5.0,9.0,31,-99.99,,,-99.99,830.000000,,2015-07-27 18:54:00,
2015-07-27 12:03:00,69.0,37.0,30.14,WSW,248,3.0,7.0,31,-99.99,,,-99.99,850.000000,,2015-07-27 19:03:00,
2015-07-27 12:13:00,70.0,37.0,30.14,SSW,199,5.0,8.0,30,-99.99,,,-99.99,870.000000,,2015-07-27 19:13:00,
2015-07-27 12:33:00,71.0,37.0,30.13,South,176,4.0,9.0,29,-99.99,,,-99.99,890.000000,,2015-07-27 19:33:00,
2015-07-27 12:44:00,72.0,36.0,30.13,South,182,2.0,5.0,27,-99.99,,,-99.99,910.000000,,2015-07-27 19:44:00,
2015-07-27 12:53:00,72.0,37.0,30.13,SE,137,5.0,9.0,28,-99.99,,,-99.99,910.000000,,2015-07-27 19:53:00,
2015-07-27 13:00:00,74.0,34.0,30.12,East,89,5.0,12.0,24,-99.99,,,-99.99,950.000000,,2015-07-27 20:00:00,
2015-07-27 13:03:00,71.0,36.0,30.13,SSE,159,3.0,9.0,28,-99.99,,,-99.99,920.000000,,2015-07-27 20:03:00,
2015-07-27 13:12:00,72.0,36.0,30.13,East,90,5.0,13.0,27,-99.99,,,-99.99,940.000000,,2015-07-27 20:12:00,
2015-07-27 13:23:00,73.0,36.0,30.13,East,96,4.0,10.0,26,-99.99,,,-99.99,940.000000,,2015-07-27 20:23:00,
2015-07-27 13:33:00,74.0,35.0,30.12,ESE,122,4.0,11.0,24,-99.99,,,-99.99,940.000000,,2015-07-27 20:33:00,
2015-07-27 13:43:00,74.0,34.0,30.12,East,89,5.0,12.0,24,-99.99,,,-99.99,950.000000,,2015-07-27 20:43:00,
2015-07-27 13:53:00,74.0,34.0,30.12,East,89,5.0,12.0,24,-99.99,,,-99.99,950.000000,,2015-07-27 20:53:00,
2015-07-27 14:33:00,75.0,32.0,30.11,ESE,121,5.0,10.0,21,-99.99,,,-99.99,940.000000,,2015-07-27 21:33:00,
2015-07-27 14:43:00,76.0,31.0,30.11,East,90,4.0,10.0,19,-99.99,,,-99.99,940.000000,,2015-07-27 21:43:00,
2015-07-27 14:53:00,76.0,30.0,30.11,East,94,4.0,10.0,18,-99.99,,,-99.99,940.000000,,2015-07-27 21:53:00,
2015-07-27 15:03:00,77.0,30.0,30.11,East,97,5.0,13.0,18,-99.99,,,-99.99,920.000000,,2015-07-27 22:03:00,
2015-07-27 15:13:00,76.0,31.0,30.11,NNE,23,9.0,18.0,19,-99.99,,,-99.99,900.000000,,2015-07-27 22:13:00,
2015-07-27 15:23:00,76.0,31.0,30.11,North,11,6.0,11.0,19,-99.99,,,-99.99,750.000000,,2015-07-27 22:23:00,
2015-07-27 15:33:00,77.0,29.0,30.10,NW,307,4.0,12.0,17,-99.99,,,-99.99,900.000000,,2015-07-27 22:33:00,
2015-07-27 15:43:00,78.0,31.0,30.10,NE,45,7.0,16.0,18,-99.99,,,-99.99,870.000000,,2015-07-27 22:43:00,
2015-07-27 15:53:00,78.0,31.0,30.10,NE,49,7.0,12.0,18,-99.99,,,-99.99,850.000000,,2015-07-27 22:53:00,
2015-07-27 16:03:00,77.0,29.0,30.10,NNE,29,8.0,14.0,17,-99.99,,,-99.99,840.000000,,2015-07-27 23:03:00,
2015-07-27 16:13:00,78.0,28.0,30.09,NNW,344,5.0,12.0,16,-99.99,,,-99.99,820.000000,,2015-07-27 23:13:00,
2015-07-27 16:33:00,79.0,29.0,30.09,NE,36,5.0,15.0,16,-99.99,,,-99.99,770.000000,,2015-07-27 23:33:00,
2015-07-27 16:43:00,79.0,29.0,30.08,NNE,12,9.0,14.0,16,-99.99,,,-99.99,750.000000,,2015-07-27 23:43:00,
2015-07-27 16:53:00,79.0,29.0,30.08,NNW,335,6.0,11.0,16,-99.99,,,-99.99,720.000000,,2015-07-27 23:53:00,
2015-07-27 17:03:00,78.0,27.0,30.08,North,8,4.0,7.0,15,-99.99,,,-99.99,700.000000,,2015-07-28 00:03:00,
2015-07-27 17:12:00,79.0,27.0,30.08,WSW,249,5.0,16.0,15,-99.99,,,-99.99,730.000000,,2015-07-28 00:12:00,
2015-07-27 17:33:00,78.0,27.0,30.08,NE,39,3.0,11.0,15,-99.99,,,-99.99,680.000000,,2015-07-28 00:33:00,
2015-07-27 17:53:00,79.0,29.0,30.08,NE,41,11.0,21.0,16,-99.99,,,-99.99,540.000000,,2015-07-28 00:53:00,
2015-07-27 18:03:00,77.0,29.0,30.08,NE,37,14.0,24.0,17,-99.99,,,-99.99,340.000000,,2015-07-28 01:03:00,
2015-07-27 18:12:00,77.0,27.0,30.08,NNE,28,11.0,17.0,16,-99.99,,,-99.99,330.000000,,2015-07-28 01:12:00,
2015-07-27 18:23:00,78.0,28.0,30.08,NNE,27,11.0,18.0,16,-99.99,,,-99.99,480.000000,,2015-07-28 01:23:00,
2015-07-27 18:33:00,78.0,28.0,30.08,NNE,27,10.0,17.0,16,-99.99,,,-99.99,450.000000,,2015-07-28 01:33:00,
2015-07-27 18:43:00,78.0,27.0,30.08,NNE,12,8.0,15.0,15,-99.99,,,-99.99,410.000000,,2015-07-28 01:43:00,
2015-07-27 18:53:00,78.0,26.0,30.08,NNE,12,10.0,16.0,15,-99.99,,,-99.99,360.000000,,2015-07-28 01:53:00,
2015-07-27 19:03:00,77.0,26.0,30.08,NNE,23,12.0,18.0,15,-99.99,,,-99.99,330.000000,,2015-07-28 02:03:00,
2015-07-27 19:12:00,76.0,25.0,30.08,NNE,32,12.0,17.0,15,-99.99,,,-99.99,290.000000,,2015-07-28 02:12:00,
2015-07-27 19:23:00,76.0,25.0,30.09,NNE,32,11.0,16.0,15,-99.99,,,-99.99,170.000000,,2015-07-28 02:23:00,
2015-07-27 19:33:00,76.0,25.0,30.09,NE,40,10.0,16.0,15,-99.99,,,-99.99,140.000000,,2015-07-28 02:33:00,
2015-07-27 19:43:00,76.0,25.0,30.09,NNE,32,13.0,19.0,15,-99.99,,,-99.99,200.000000,,2015-07-28 02:43:00,
2015-07-27 19:53:00,75.0,24.0,30.10,NNE,24,11.0,16.0,15,-99.99,,,-99.99,170.000000,,2015-07-28 02:53:00,
2015-07-27 20:03:00,75.0,22.0,30.10,NNE,31,12.0,17.0,14,-99.99,,,-99.99,130.000000,,2015-07-28 03:03:00,
2015-07-27 20:12:00,74.0,22.0,30.10,NE,34,12.0,17.0,14,-99.99,,,-99.99,100.000000,,2015-07-28 03:12:00,
2015-07-27 20:23:00,74.0,23.0,30.11,NE,37,13.0,18.0,15,-99.99,,,-99.99,60.000000,,2015-07-28 03:23:00,
2015-07-27 20:35:00,73.0,23.0,30.11,NE,34,11.0,15.0,15,-99.99,,,-99.99,,,2015-07-28 03:35:00,
2015-07-27 20:43:00,73.0,23.0,30.11,NE,34,11.0,15.0,15,-99.99,,,-99.99,30.000000,,2015-07-28 03:43:00,
2015-07-27 20:53:00,73.0,24.0,30.11,NNE,32,12.0,16.0,16,-99.99,,,-99.99,10.000000,,2015-07-28 03:53:00,
2015-07-27 21:04:00,72.0,24.0,30.12,NNE,30,10.0,15.0,16,-99.99,,,-99.99,10.000000,,2015-07-28 04:04:00,
2015-07-27 21:15:00,72.0,23.0,30.12,NNE,27,11.0,15.0,16,-99.99,,,-99.99,0.000000,,2015-07-28 04:15:00,
2015-07-27 21:23:00,72.0,23.0,30.12,NNE,24,11.0,16.0,16,-99.99,,,-99.99,0.000000,,2015-07-28 04:23:00,
2015-07-27 21:34:00,72.0,23.0,30.12,NNE,23,9.0,16.0,16,-99.99,,,-99.99,0.000000,,2015-07-28 04:34:00,
2015-07-27 21:43:00,72.0,23.0,30.13,NNE,20,9.0,16.0,16,-99.99,,,-99.99,0.000000,,2015-07-28 04:43:00,
2015-07-27 21:50:00,70.0,23.0,30.14,North,1,7.0,10.0,17,-99.99,,,-99.99,0.000000,,2015-07-28 04:50:00,
2015-07-27 21:53:00,72.0,23.0,30.13,NNE,25,10.0,16.0,16,-99.99,,,-99.99,0.000000,,2015-07-28 04:53:00,
2015-07-27 22:04:00,71.0,23.0,30.13,NNE,22,8.0,14.0,16,-99.99,,,-99.99,0.000000,,2015-07-28 05:04:00,
2015-07-27 22:13:00,71.0,23.0,30.13,NNE,22,9.0,-999.0,16,-99.99,,,-99.99,,,2015-07-28 05:13:00,
2015-07-27 22:23:00,71.0,24.0,30.14,NNE,14,7.0,12.0,17,-99.99,,,-99.99,0.000000,,2015-07-28 05:23:00,
2015-07-27 22:33:00,70.0,23.0,30.14,North,1,7.0,10.0,17,-99.99,,,-99.99,0.000000,,2015-07-28 05:33:00,
2015-07-27 22:43:00,70.0,23.0,30.14,North,1,7.0,10.0,17,-99.99,,,-99.99,0.000000,,2015-07-28 05:43:00,
2015-07-27 23:12:00,69.0,22.0,30.15,North,356,4.0,7.0,17,-99.99,,,-99.99,0.000000,,2015-07-28 06:12:00,
2015-07-27 23:23:00,68.0,22.0,30.15,North,360,4.0,6.0,17,-99.99,,,-99.99,0.000000,,2015-07-28 06:23:00,